Dewpoint
35 37 38 38 39 40 42 42 41 40 39 37 36 35 35 37 38 39 39 38 39 40
34 35 36 37 39 41 41 41 40 38 37 37 36 34 34 35 35 35 36 37 37 37
32 34 35 36 38 40 40 40 39 39 38 37 36 34 33 33 34 34 35 35 35 36
30 31 32 33 35 36 37 38 39 38 37 36 36 35 33 32 32 32 32 33 33 34
29 29 29 29 30 32 33 35 36 37 38 37 37 36 34 33 33 32 32 32 32 32
29 28 28 28 29 30 31 31 33 35 35 36 36 36 35 35 34 33 33 33 32 32
30 30 29 29 29 30 30 30 30 32 34 34 34 34 35 35 34 34 34 35 35 35
32 31 30 30 29 30 30 29 30 31 31 31 31 31 33 33 33 34 35 36 36 37
33 32 31 30 29 29 29 28 29 29 30 29 29 35 38 37 34 35 35 34 35 36
33 32 31 31 30 28 28 28 28 29 29 29 29 34 37 39 34 33 33 32 33 34
33 31 30 30 30 29 29 28 28 29 30 30 29 35 37 38 34 32 32 31 31 32
32 30 30 29 29 29 29 29 29 29 30 29 29 34 36 37 32 32 31 30 30 30
29 28 27 27 27 28 28 27 28 29 30 32 30 34 36 37 34 32 30 30 29 33
25 24 24 25 25 26 27 28 28 28 28 28 29 28 33 37 35 32 30 29 28 29
Lifted_Index
12 12 13 14 14 14 13 13 13 13 14 14 15 15 16 16 16 16 16 16 16 16
12 12 13 14 14 14 14 14 14 14 14 14 15 15 15 15 16 16 16 16 16 16
12 12 13 14 14 15 15 15 14 14 14 15 15 15 15 15 15 15 15 15 15 15
11 11 12 13 14 15 16 16 15 15 15 15 15 15 15 15 14 14 14 14 15 15
11 11 11 12 14 15 16 17 17 16 16 16 15 15 15 15 15 15 15 15 15 15
10 11 11 12 13 15 16 17 17 17 17 16 16 16 16 16 16 16 16 16 16 16
10 11 11 11 12 14 15 17 17 17 17 17 17 17 17 17 17 17 17 17 17 17
10 11 11 11 11 13 15 16 17 17 17 17 17 17 17 17 17 17 17 17 17 17
10 10 10 10 11 12 13 15 16 16 16 15 15 15 16 16 16 16 16 17 17 17
10 10 10 10 11 11 12 13 14 14 14 13 13 14 15 15 15 16 16 16 17 17
10 10 9 10 10 11 11 12 13 13 13 12 12 13 14 14 14 15 15 16 16 16
9 9 9 9 9 10 11 11 11 11 11 12 12 12 13 13 14 14 15 15 16 16
9 8 8 8 9 10 10 11 11 11 11 12 12 13 13 13 14 14 15 15 15 15
8 8 8 9 9 10 10 10 11 11 12 12 13 14 14 13 13 14 14 15 14 14